N216TB PADU-PACD

Flight info

Callsign N216TB
Flight time 0h 42m
Altitude 19000
Route DCT DAWKU DCT WODPU DCT BUKAY DCT EPHEX DCT SOTOE DCT
Aircraft PC12/L-L/C

Departure

Time 2026-04-13 00:30
Airport Tom Madsen (Dutch Harbor) Airport (PADU)

Arrival

Time 2026-04-13 01:13
Airport Cold Bay Airport (PACD)
Time Latitude Longitude Altitude Speed Heading
2026-04-13 00:19 53.89568 -166.54235 19 ft 0 kts 10°
2026-04-13 00:25 53.89577 -166.54224 20 ft 5 kts 62°
2026-04-13 00:25 53.89567 -166.54166 21 ft 0 kts 137°
2026-04-13 00:26 53.89557 -166.54122 21 ft 11 kts 74°
2026-04-13 00:26 53.89633 -166.54056 25 ft 17 kts 284°
2026-04-13 00:26 53.89739 -166.54260 24 ft 30 kts 315°
2026-04-13 00:26 53.89901 -166.54520 23 ft 19 kts 320°
2026-04-13 00:27 53.89984 -166.54584 21 ft 11 kts 357°
2026-04-13 00:27 53.90079 -166.54701 24 ft 23 kts 307°
2026-04-13 00:27 53.90220 -166.54926 28 ft 30 kts 317°
2026-04-13 00:27 53.90306 -166.55052 27 ft 1 kts 315°
2026-04-13 00:28 53.90292 -166.55112 29 ft 5 kts 227°
2026-04-13 00:28 53.90259 -166.55120 29 ft 2 kts 135°
2026-04-13 00:28 53.90259 -166.55118 29 ft 0 kts 135°
2026-04-13 00:29 53.90161 -166.54951 29 ft 55 kts 135°
2026-04-13 00:30 53.89741 -166.54276 52 ft 105 kts 134°
2026-04-13 00:30 53.89174 -166.53334 427 ft 120 kts 135°
2026-04-13 00:30 53.88469 -166.52377 971 ft 142 kts 149°
2026-04-13 00:30 53.87512 -166.51980 1713 ft 150 kts 183°
2026-04-13 00:31 53.86496 -166.52422 2436 ft 156 kts 210°
2026-04-13 00:31 53.85509 -166.53417 2886 ft 175 kts 204°
2026-04-13 00:31 53.84262 -166.53607 3377 ft 185 kts 183°
2026-04-13 00:31 53.83071 -166.54306 3881 ft 184 kts 223°
2026-04-13 00:32 53.82475 -166.56143 4397 ft 180 kts 265°
2026-04-13 00:32 53.82784 -166.58133 4942 ft 180 kts 305°
2026-04-13 00:32 53.83847 -166.59274 5467 ft 191 kts 344°
2026-04-13 00:32 53.85195 -166.59224 6001 ft 203 kts
2026-04-13 00:33 53.86566 -166.58511 6545 ft 212 kts 20°
2026-04-13 00:33 53.87835 -166.57162 7057 ft 219 kts 32°
2026-04-13 00:33 53.89049 -166.55563 7570 ft 222 kts 32°
2026-04-13 00:33 53.90296 -166.53983 8091 ft 225 kts 30°
2026-04-13 00:34 53.91577 -166.52423 8609 ft 227 kts 30°
2026-04-13 00:34 53.92870 -166.50847 9143 ft 230 kts 30°
2026-04-13 00:34 53.94172 -166.49245 9686 ft 232 kts 30°
2026-04-13 00:34 53.95485 -166.47628 10223 ft 234 kts 30°
2026-04-13 00:35 53.96655 -166.45691 10702 ft 244 kts 47°
2026-04-13 00:35 53.97530 -166.43171 11200 ft 250 kts 58°
2026-04-13 00:35 53.98336 -166.40530 11705 ft 253 kts 57°
2026-04-13 00:35 53.99162 -166.37862 12223 ft 257 kts 57°
2026-04-13 00:36 53.99990 -166.35173 12737 ft 257 kts 57°
2026-04-13 00:36 54.00823 -166.32471 13264 ft 259 kts 57°
2026-04-13 00:36 54.01661 -166.29745 13800 ft 261 kts 57°
2026-04-13 00:36 54.02506 -166.26993 14312 ft 263 kts 57°
2026-04-13 00:37 54.04199 -166.21471 15264 ft 267 kts 57°
2026-04-13 00:37 54.05060 -166.18657 15755 ft 269 kts 56°
2026-04-13 00:37 54.05925 -166.15826 16253 ft 271 kts 56°
2026-04-13 00:38 54.06797 -166.12970 16749 ft 273 kts 56°
2026-04-13 00:38 54.07691 -166.10050 16973 ft 285 kts 56°
2026-04-13 00:38 54.08629 -166.06977 16979 ft 298 kts 56°
2026-04-13 00:38 54.09588 -166.03808 16971 ft 303 kts 57°
2026-04-13 00:39 54.10556 -166.00605 16971 ft 304 kts 57°
2026-04-13 00:39 54.11527 -165.97405 16962 ft 304 kts 56°
2026-04-13 00:39 54.12484 -165.94249 16966 ft 304 kts 56°
2026-04-13 00:39 54.13455 -165.91040 16972 ft 305 kts 57°
2026-04-13 00:40 54.14425 -165.87829 16966 ft 305 kts 57°
2026-04-13 00:40 54.15395 -165.84612 16970 ft 305 kts 57°
2026-04-13 00:40 54.16369 -165.81381 16966 ft 306 kts 57°
2026-04-13 00:40 54.17340 -165.78153 16963 ft 306 kts 57°
2026-04-13 00:41 54.18310 -165.74918 16967 ft 306 kts 57°
2026-04-13 00:41 54.19182 -165.71593 16966 ft 307 kts 61°
2026-04-13 00:41 54.20029 -165.68243 16964 ft 308 kts 61°
2026-04-13 00:41 54.20873 -165.64934 16969 ft 308 kts 60°
2026-04-13 00:42 54.21728 -165.61586 16969 ft 308 kts 60°
2026-04-13 00:42 54.22582 -165.58228 16966 ft 308 kts 60°
2026-04-13 00:42 54.23434 -165.54861 16959 ft 308 kts 61°
2026-04-13 00:42 54.24286 -165.51494 16960 ft 309 kts 61°
2026-04-13 00:43 54.25138 -165.48127 16963 ft 309 kts 61°
2026-04-13 00:43 54.25989 -165.44756 16961 ft 309 kts 61°
2026-04-13 00:43 54.26839 -165.41384 16961 ft 309 kts 61°
2026-04-13 00:43 54.27689 -165.38007 16960 ft 309 kts 61°
2026-04-13 00:44 54.28527 -165.34672 16963 ft 309 kts 61°
2026-04-13 00:44 54.30223 -165.27907 16966 ft 309 kts 61°
2026-04-13 00:44 54.31071 -165.24520 16962 ft 310 kts 61°
2026-04-13 00:45 54.31918 -165.21129 16959 ft 310 kts 61°
2026-04-13 00:45 54.32763 -165.17738 16964 ft 310 kts 61°
2026-04-13 00:45 54.33610 -165.14338 16964 ft 310 kts 61°
2026-04-13 00:45 54.34455 -165.10940 16961 ft 310 kts 61°
2026-04-13 00:46 54.35299 -165.07539 16964 ft 310 kts 61°
2026-04-13 00:46 54.36132 -165.04178 16959 ft 310 kts 61°
2026-04-13 00:46 54.36975 -165.00772 16959 ft 311 kts 61°
2026-04-13 00:46 54.37818 -164.97361 16961 ft 311 kts 61°
2026-04-13 00:47 54.38660 -164.93945 16961 ft 311 kts 61°
2026-04-13 00:47 54.39503 -164.90524 16958 ft 311 kts 61°
2026-04-13 00:47 54.40344 -164.87107 16954 ft 311 kts 61°
2026-04-13 00:47 54.41184 -164.83682 16958 ft 311 kts 61°
2026-04-13 00:48 54.42024 -164.80257 16959 ft 312 kts 61°
2026-04-13 00:48 54.42865 -164.76822 16957 ft 312 kts 61°
2026-04-13 00:48 54.43694 -164.73430 16958 ft 312 kts 61°
2026-04-13 00:48 54.44534 -164.69988 16956 ft 312 kts 61°
2026-04-13 00:49 54.45373 -164.66545 16951 ft 312 kts 61°
2026-04-13 00:49 54.46210 -164.63105 16949 ft 312 kts 61°
2026-04-13 00:49 54.47046 -164.59660 16950 ft 312 kts 61°
2026-04-13 00:49 54.47882 -164.56213 16951 ft 312 kts 61°
2026-04-13 00:50 54.48715 -164.52774 16949 ft 312 kts 61°
2026-04-13 00:50 54.49548 -164.49327 16948 ft 312 kts 61°
2026-04-13 00:50 54.50382 -164.45875 16945 ft 313 kts 61°
2026-04-13 00:50 54.51202 -164.42468 16944 ft 313 kts 61°
2026-04-13 00:51 54.52034 -164.39011 16945 ft 312 kts 61°
2026-04-13 00:51 54.52865 -164.35553 16942 ft 313 kts 61°
2026-04-13 00:51 54.53694 -164.32096 16947 ft 313 kts 61°
2026-04-13 00:51 54.54524 -164.28627 16944 ft 313 kts 61°
2026-04-13 00:52 54.55353 -164.25162 16942 ft 313 kts 61°
2026-04-13 00:52 54.56181 -164.21689 16946 ft 313 kts 61°
2026-04-13 00:52 54.57010 -164.18213 16941 ft 314 kts 61°
2026-04-13 00:52 54.57837 -164.14734 16941 ft 314 kts 61°
2026-04-13 00:53 54.58664 -164.11253 16939 ft 314 kts 61°
2026-04-13 00:53 54.59480 -164.07815 16941 ft 314 kts 61°
2026-04-13 00:53 54.60304 -164.04332 16943 ft 314 kts 62°
2026-04-13 00:53 54.61129 -164.00842 16941 ft 314 kts 61°
2026-04-13 00:54 54.61953 -163.97352 16935 ft 314 kts 62°
2026-04-13 00:54 54.62776 -163.93858 16935 ft 314 kts 62°
2026-04-13 00:54 54.63602 -163.90349 16787 ft 319 kts 62°
2026-04-13 00:54 54.64451 -163.86751 16328 ft 327 kts 62°
2026-04-13 00:55 54.65304 -163.83101 15878 ft 329 kts 62°
2026-04-13 00:55 54.66147 -163.79484 15440 ft 328 kts 63°
2026-04-13 00:55 54.66998 -163.75839 15002 ft 326 kts 63°
2026-04-13 00:55 54.67844 -163.72217 14571 ft 324 kts 63°
2026-04-13 00:56 54.68681 -163.68623 14138 ft 322 kts 63°
2026-04-13 00:56 54.69512 -163.65048 13662 ft 319 kts 63°
2026-04-13 00:56 54.70335 -163.61504 13172 ft 316 kts 63°
2026-04-13 00:56 54.71148 -163.57992 12693 ft 313 kts 63°
2026-04-13 00:57 54.71953 -163.54507 12221 ft 311 kts 64°
2026-04-13 00:57 54.72755 -163.51039 11760 ft 310 kts 64°
2026-04-13 00:57 54.73541 -163.47634 11292 ft 308 kts 64°
2026-04-13 00:57 54.74318 -163.44249 10855 ft 299 kts 64°
2026-04-13 00:58 54.75080 -163.40931 10406 ft 295 kts 64°
2026-04-13 00:58 54.75836 -163.37643 9949 ft 293 kts 64°
2026-04-13 00:58 54.76583 -163.34384 9453 ft 289 kts 64°
2026-04-13 00:58 54.77319 -163.31165 8969 ft 285 kts 64°
2026-04-13 00:59 54.78043 -163.27993 8492 ft 281 kts 64°
2026-04-13 00:59 54.78757 -163.24865 8016 ft 277 kts 64°
2026-04-13 00:59 54.79459 -163.21783 7550 ft 273 kts 64°
2026-04-13 00:59 54.80143 -163.18775 7104 ft 270 kts 64°
2026-04-13 01:00 54.80825 -163.15772 6652 ft 266 kts 64°
2026-04-13 01:00 54.81497 -163.12809 6186 ft 262 kts 65°
2026-04-13 01:00 54.82157 -163.09894 5717 ft 257 kts 65°
2026-04-13 01:00 54.82806 -163.07026 5258 ft 253 kts 65°
2026-04-13 01:01 54.83439 -163.04220 4933 ft 246 kts 66°
2026-04-13 01:01 54.83845 -163.02416 4920 ft 239 kts 65°
2026-04-13 01:01 54.84447 -162.99747 4915 ft 236 kts 65°
2026-04-13 01:01 54.85238 -162.96240 4915 ft 235 kts 65°
2026-04-13 01:02 54.85832 -162.93596 4916 ft 235 kts 65°
2026-04-13 01:02 54.86426 -162.90951 4919 ft 235 kts 65°
2026-04-13 01:02 54.87018 -162.88305 4923 ft 235 kts 65°
2026-04-13 01:02 54.87411 -162.86549 4920 ft 235 kts 65°
2026-04-13 01:03 54.88003 -162.83906 4924 ft 235 kts 65°
2026-04-13 01:03 54.88597 -162.81249 4927 ft 236 kts 65°
2026-04-13 01:03 54.89188 -162.78595 4924 ft 235 kts 65°
2026-04-13 01:03 54.89778 -162.75949 4923 ft 235 kts 65°
2026-04-13 01:04 54.90911 -162.72849 4916 ft 227 kts 41°
2026-04-13 01:04 54.92038 -162.70932 4913 ft 227 kts 39°
2026-04-13 01:04 54.92796 -162.69633 4915 ft 227 kts 39°
2026-04-13 01:04 54.93915 -162.67702 4917 ft 226 kts 39°
2026-04-13 01:05 54.95035 -162.65771 4921 ft 226 kts 39°
2026-04-13 01:05 54.96137 -162.63874 4922 ft 226 kts 39°
2026-04-13 01:05 54.97254 -162.61948 4926 ft 226 kts 39°
2026-04-13 01:05 54.98376 -162.60035 4921 ft 224 kts 36°
2026-04-13 01:06 54.99662 -162.58595 4920 ft 218 kts 18°
2026-04-13 01:06 55.01091 -162.57875 4911 ft 211 kts
2026-04-13 01:06 55.02544 -162.57671 4908 ft 209 kts 359°
2026-04-13 01:06 55.03997 -162.57466 4921 ft 209 kts 359°
2026-04-13 01:07 55.05449 -162.57258 4841 ft 212 kts 359°
2026-04-13 01:07 55.06920 -162.57053 4512 ft 211 kts 359°
2026-04-13 01:07 55.08360 -162.56851 4191 ft 210 kts 360°
2026-04-13 01:07 55.09815 -162.56649 3864 ft 210 kts
2026-04-13 01:08 55.11270 -162.56446 3558 ft 210 kts
2026-04-13 01:08 55.12729 -162.56242 3122 ft 211 kts
2026-04-13 01:08 55.14191 -162.56037 2640 ft 210 kts
2026-04-13 01:08 55.15615 -162.55832 2154 ft 190 kts
2026-04-13 01:09 55.16791 -162.55655 1899 ft 153 kts 359°
2026-04-13 01:09 55.17723 -162.55523 1903 ft 125 kts 357°
2026-04-13 01:09 55.18565 -162.55418 1907 ft 119 kts 356°
2026-04-13 01:09 55.19394 -162.55356 1913 ft 126 kts 348°
2026-04-13 01:10 55.20214 -162.55896 1927 ft 128 kts 322°
2026-04-13 01:10 55.20809 -162.57040 1928 ft 128 kts 298°
2026-04-13 01:10 55.21057 -162.58529 1826 ft 130 kts 273°
2026-04-13 01:10 55.20723 -162.60018 1553 ft 140 kts 236°
2026-04-13 01:11 55.20136 -162.61313 1452 ft 135 kts 236°
2026-04-13 01:11 55.19575 -162.62640 1241 ft 133 kts 247°
2026-04-13 01:11 55.19409 -162.64198 874 ft 133 kts 276°
2026-04-13 01:11 55.19485 -162.65617 659 ft 107 kts 278°
2026-04-13 01:12 55.19570 -162.66915 577 ft 109 kts 278°
2026-04-13 01:12 55.19631 -162.68251 482 ft 110 kts 279°
2026-04-13 01:12 55.19742 -162.69604 261 ft 112 kts 275°
2026-04-13 01:12 55.19791 -162.70799 115 ft 81 kts 278°
2026-04-13 01:13 55.19835 -162.71530 98 ft 30 kts 275°
2026-04-13 01:13 55.19840 -162.71623 98 ft 10 kts 300°
2026-04-13 01:13 55.19918 -162.71601 99 ft 13 kts 11°
2026-04-13 01:13 55.20000 -162.71587 99 ft 10 kts 10°
2026-04-13 01:14 55.20025 -162.71579 99 ft 0 kts